Location: Zagreb
(45.8000°N, 16.0000°E)
Time: 20:55:29
(UTC+01:00)

DX 1 - Pass Details

Date: 31 October 2020
Orbit: 619 x 630 km, 98.5° (Epoch: 01 December)

Event Time Altitude Azimuth Distance (km) Brightness Sun altitude
Rises 04:38:37 0° 141° (SE) 2,888 ? -20.7°
Reaches altitude 10° 04:40:55 10° 133° (SE) 1,985 ? -20.3°
Maximum altitude 04:44:49 34° 68° (ENE) 1,019 ? -19.7°
Drops below altitude 10° 04:48:45 10° 3° (N) 1,996 ? -19.0°
Sets 04:51:05 0° 355° (N) 2,907 ? -18.6°
